RH
80 83 82 79 80 83 88 91 95 87 72 65 75 77 76 82 86 74 80 90 89 90 89 89 89 88 87 85 84 80 79 77 77 75 74 73 72 72
71 76 78 77 78 79 81 85 92 97 95 79 78 73 69 72 80 72 79 86 87 85 85 86 85 84 83 82 80 78 76 76 74 75 75 74 72 75
66 71 75 76 76 74 76 75 78 87 94 79 79 72 73 72 72 68 71 71 72 81 79 80 80 78 78 78 77 78 82 81 80 80 79 77 75 77
70 76 76 70 75 70 75 74 77 76 86 87 77 73 73 75 76 73 69 70 70 79 78 80 81 80 81 82 82 81 80 80 80 77 76 73 72 70
75 77 77 82 78 80 80 80 76 73 82 87 81 75 72 74 77 78 74 75 68 81 82 83 83 80 80 80 80 80 78 74 73 72 69 70 68 68
81 81 81 81 81 78 75 76 77 82 82 84 83 81 79 77 83 82 81 77 79 74 75 71 86 86 84 83 83 81 74 66 66 65 66 66 67 67
80 79 80 85 93 88 83 81 83 86 87 85 84 82 85 84 83 80 79 77 84 79 77 76 78 79 90 86 84 75 69 67 65 64 64 65 66 66
82 76 74 88 85 89 86 83 89 85 86 88 85 84 78 87 89 84 83 85 81 80 72 68 79 77 86 80 72 74 62 62 63 63 65 65 65 65
84 83 80 72 85 82 85 85 87 88 87 84 80 83 78 80 89 86 83 82 76 78 70 68 82 79 79 61 73 68 66 63 65 67 67 67 67 66
87 85 84 80 76 85 85 85 82 82 88 83 84 81 83 83 84 73 69 70 70 74 76 73 76 71 72 74 76 68 64 62 63 64 68 66 66 66
85 85 84 83 81 82 90 93 86 84 82 84 84 84 84 83 74 71 71 66 56 65 80 71 72 71 71 77 78 70 67 63 64 68 66 66 66 68
79 82 87 84 84 81 85 91 90 81 78 83 85 82 79 78 76 66 65 77 68 69 78 78 75 74 68 76 82 76 74 62 68 67 65 66 67 66
80 77 77 81 81 82 84 91 89 78 77 84 88 89 84 82 81 76 69 79 83 77 76 76 87 81 80 73 72 70 73 62 62 66 65 66 67 68
82 75 76 80 81 82 81 82 90 87 82 81 87 89 90 91 87 83 78 78 74 77 72 77 90 84 83 77 67 71 69 66 72 72 67 66 67 68
85 86 87 86 84 82 84 85 87 84 89 94 94 92 92 89 93 90 85 82 91 85 79 91 89 92 90 86 79 76 79 75 74 81 80 73 66 64
79 83 86 88 90 87 85 84 88 86 89 90 88 84 85 90 90 88 92 91 90 85 91 96 91 93 97 91 88 85 79 87 81 78 79 75 70 66
79 81 82 89 90 94 92 90 88 91 94 88 87 86 84 86 88 90 91 92 89 87 89 95 93 92 91 93 94 84 82 86 85 88 83 84 74 62
93 93 90 88 89 87 88 87 89 90 90 91 91 90 89 89 89 93 93 92 89 84 87 92 97 96 88 81 88 87 84 86 83 84 84 89 83 68
91 88 90 90 90 90 90 91 93 90 95 97 95 93 92 90 89 92 93 92 91 86 88 91 94 92 92 84 70 79 87 87 86 83 78 83 84 76
93 94 93 89 92 94 95 96 94 94 96 95 96 96 95 93 93 91 91 91 90 87 90 93 94 93 91 86 84 78 80 90 89 86 83 76 74 74
86 89 89 91 93 96 95 96 97 98 96 96 95 94 94 94 93 89 88 84 85 92 92 91 90 79 89 90 92 83 79 76 83 91 88 88 85 79
87 88 88 90 92 94 96 99 100 99 99 99 97 96 95 97 97 96 95 96 95 93 93 93 92 94 93 90 86 86 83 78 73 72 71 79 89 91
88 90 92 94 94 93 98 100 100 100 100 100 100 99 98 97 95 96 96 96 96 96 95 95 94 92 90 92 89 89 90 86 76 73 73 68 73 75
Wind_Speed
4 5 4 4 4 3 3 3 3 3 6 3 3 4 4 5 8 8 10 15 17 17 17 16 17 16 16 14 13 12 12 10 10 8 7 8 7 7
3 5 5 4 4 3 3 3 2 2 3 1 2 2 4 3 6 7 8 9 15 13 14 14 14 14 13 13 13 13 12 12 10 10 10 9 7 8
7 7 7 6 4 3 2 3 3 2 4 3 2 2 2 4 4 5 6 6 7 12 10 10 11 11 12 12 12 13 14 14 13 12 11 9 7 9
6 5 7 4 6 5 3 4 3 4 3 7 5 3 3 3 2 4 4 5 5 10 10 9 9 10 11 12 13 13 13 12 11 10 8 6 8 8
7 7 6 6 6 3 4 4 3 3 4 4 6 4 4 2 2 1 2 4 4 6 7 9 7 6 9 10 11 11 11 10 9 7 6 8 7 9
7 7 8 7 7 6 5 4 4 4 4 4 5 4 4 1 0 1 2 1 1 2 3 5 4 7 7 9 9 8 8 6 6 4 5 6 7 8
8 8 8 7 8 7 4 5 5 4 4 4 3 3 3 2 2 2 2 1 1 3 2 1 0 1 3 6 5 4 7 5 3 3 3 5 6 7
9 9 8 9 9 10 9 10 7 5 6 2 3 6 6 2 1 2 2 1 2 2 2 1 2 3 1 1 2 3 1 2 1 2 3 4 4 5
10 9 8 6 8 7 9 9 10 10 8 5 5 6 7 3 1 3 3 2 2 1 2 2 0 2 1 2 3 4 7 3 3 5 5 6 7 8
10 10 10 10 9 8 8 8 8 7 6 5 6 6 5 3 5 1 1 2 2 2 2 3 1 2 1 2 3 7 5 4 3 3 6 7 7 8
9 10 10 11 13 14 10 10 9 8 7 11 9 8 7 7 5 3 3 3 2 2 3 2 2 1 1 2 1 7 3 4 4 3 5 7 8 8
8 10 16 14 16 16 11 10 11 9 6 6 6 8 9 8 8 5 3 3 2 2 3 3 1 1 1 1 2 1 1 1 2 2 5 7 9 4
7 7 7 16 18 18 17 10 11 6 6 6 6 6 5 6 5 5 5 4 3 3 3 2 2 2 1 1 1 2 2 1 1 2 4 7 8 6
9 7 8 12 15 16 14 16 17 12 5 5 5 7 7 7 6 6 6 5 4 3 4 4 2 3 2 1 2 1 2 2 2 2 3 6 7 6
7 11 15 13 14 13 16 15 14 9 6 6 7 6 7 5 3 3 4 4 3 5 5 5 4 4 3 3 1 2 2 2 3 3 3 4 4 4
8 6 7 11 11 10 8 8 6 7 7 7 7 5 3 3 5 5 5 5 3 4 7 7 7 6 4 5 4 3 4 2 2 3 3 5 5 4
6 2 3 3 6 6 5 6 6 6 7 7 6 6 5 5 5 5 4 4 6 3 4 5 7 5 5 4 4 6 5 4 4 3 3 4 5 4
4 4 6 5 6 6 6 6 7 10 8 8 7 7 7 7 7 6 5 7 7 7 5 5 6 4 3 7 14 7 4 4 3 3 3 4 4 4
5 7 7 7 8 6 6 6 7 7 7 7 8 8 8 7 10 8 8 8 8 7 6 5 6 6 6 5 2 13 4 3 2 3 4 4 4 6
3 5 5 6 6 6 6 6 6 6 6 7 8 8 8 8 7 8 9 10 9 8 7 6 7 8 7 4 2 2 13 5 3 4 4 3 6 11
5 5 6 6 6 5 6 6 7 6 7 7 7 8 8 8 9 9 9 16 14 9 9 9 9 12 3 3 2 3 3 11 9 5 3 4 3 2
6 6 6 6 6 6 6 7 6 7 7 7 8 8 8 8 9 9 9 9 11 10 9 6 7 7 6 7 6 3 2 2 5 12 14 12 2 3
6 5 5 5 5 7 7 7 7 7 7 7 7 7 8 7 9 8 9 9 8 9 9 8 7 7 7 7 6 4 3 3 2 2 2 7 13 11
Wind_Direction
306 293 292 287 289 285 279 292 280 305 315 340 321 21 18 24 14 50 47 43 47 56 62 68 68 67 74 77 81 84 84 87 76 67 64 53 32 38
286 293 290 287 293 302 308 310 298 276 266 287 290 327 17 39 31 51 57 58 43 49 55 61 70 78 81 86 91 91 86 86 87 77 67 62 50 39
285 280 284 276 282 295 311 329 319 315 283 297 288 330 328 355 20 42 38 46 55 49 53 64 70 76 79 85 85 83 75 67 61 57 55 45 37 30
285 277 274 267 261 264 247 288 298 301 290 293 303 313 321 3 35 49 46 50 50 38 40 51 75 87 96 92 87 80 74 66 53 39 35 26 26 13
285 271 269 270 269 264 278 271 236 241 239 255 281 288 298 268 204 134 90 80 78 62 43 28 47 97 107 103 96 91 77 56 42 37 26 39 31 29
274 280 284 288 286 295 285 287 292 285 271 258 259 258 240 249 255 297 236 92 58 45 87 43 21 40 131 107 100 87 63 46 36 56 51 44 30 25
263 266 269 275 280 266 274 283 284 276 278 281 288 307 324 321 324 348 295 323 106 358 333 35 183 160 72 101 122 114 68 43 41 49 56 48 29 17
258 265 267 270 269 264 262 261 251 263 273 248 280 277 279 240 240 290 285 280 266 64 329 231 290 196 89 126 354 102 174 117 60 83 44 19 9 2
247 254 262 258 260 257 260 264 254 231 232 265 255 254 275 255 141 254 235 234 248 96 303 269 7 212 213 288 286 166 117 94 79 59 34 18 6 352
240 244 250 259 255 250 252 253 256 254 234 229 242 253 258 231 217 246 229 238 256 215 229 249 157 203 275 274 280 123 95 63 45 29 12 356 344 334
240 237 237 247 247 247 243 245 252 250 232 223 237 239 228 202 195 178 215 215 225 206 189 231 162 241 248 199 65 135 101 39 27 40 359 350 340 337
247 244 241 240 246 244 238 237 247 249 226 219 235 237 216 200 192 216 197 220 218 247 175 232 180 286 198 175 215 192 195 19 14 41 359 347 339 324
252 258 245 243 249 245 237 227 234 235 231 219 230 229 211 210 208 211 212 207 201 242 168 179 182 174 227 269 223 212 216 211 301 240 331 334 334 327
246 252 257 250 251 249 242 242 236 231 215 219 224 234 228 228 223 216 214 216 228 234 178 176 181 202 189 234 240 181 223 261 225 241 300 316 311 314
244 249 256 256 256 256 245 241 236 233 213 217 228 231 221 226 192 192 208 225 235 231 215 193 188 173 196 210 223 225 305 202 221 238 275 297 304 311
264 261 258 254 245 246 247 243 228 224 218 224 232 229 196 188 203 190 194 192 226 229 216 204 198 180 200 232 232 247 230 257 201 260 289 294 287 270
264 232 242 235 246 246 234 228 223 217 215 215 218 217 211 206 212 188 201 186 213 191 190 193 205 218 235 212 236 237 243 231 228 250 253 295 281 284
267 245 257 249 243 244 240 238 225 223 220 217 217 215 217 211 209 192 197 209 220 215 203 177 174 184 220 236 222 242 235 238 239 234 251 275 287 291
258 271 271 271 271 256 248 240 239 224 221 221 223 222 219 214 207 202 199 206 218 222 214 179 186 197 208 232 156 206 215 202 207 260 257 244 273 287
240 253 262 272 260 250 240 237 237 233 220 225 223 223 217 216 211 210 203 201 204 203 206 192 201 201 207 213 197 175 206 219 224 254 268 269 266 278
246 250 251 255 255 247 250 245 238 236 230 228 225 223 219 213 217 216 209 207 195 195 206 206 206 202 148 118 216 214 212 222 222 224 237 277 279 283
247 242 245 251 256 254 252 250 242 239 240 230 226 224 221 214 220 215 210 207 205 200 203 179 160 164 177 202 221 214 210 249 242 255 243 225 237 269
244 237 235 238 249 264 254 249 244 243 236 236 234 225 222 220 216 214 210 208 204 191 178 164 160 175 191 199 209 222 224 236 235 272 261 242 234 251